Weather History for KSSC - July, 2013

Change the Weather History Date:

Friday, July 5, 2013

  Actual Average Record
Temperature  
Mean Temperature 81 °F -  
Max Temperature 90 °F 87 °F 100 °F (2002)
Min Temperature 71 °F 68 °F 61 °F (2007)
Cooling Degree Days 16    
Growing Degree Days 31 (Base 50)    
Moisture  
Dew Point 72 °F    
Average Humidity 86    
Maximum Humidity 100    
Minimum Humidity 49    
Precipitation  
Precipitation 2.41 in - - ()
Sea Level Pressure  
Sea Level Pressure 30.20 in    
Wind  
Wind Speed 5 mph (SE)    
Max Wind Speed 17 mph    
Max Gust Speed 26 mph    
Visibility 6 miles    
Events Fog , Rain , Thunderstorm    
Averages and records for this station are not official NWS values.
T = Trace of Precipitation, MM = Missing Value Source: NWS Daily Summary

Daily Weather History Graph

Daily Weather History Graph

Search for Another Location

Airport or City:

Trip Planner

Search our weather history database for the weather conditions in past years. The results will help you decide how hot, cold, wet, or windy it might be!

Date:

Astronomy

Jul. 05, 2013 Rise Set
Actual Time 6:16 AM EDT 8:36 PM EDT
Civil Twilight 5:47 AM EDT 9:05 PM EDT
Nautical Twilight 5:11 AM EDT 9:40 PM EDT
Astronomical Twilight 4:33 AM EDT 10:19 PM EDT
Moon 4:11 AM EDT (7/5) 6:32 PM EDT (7/5)
Length of Visible Light 15h 18m
Length of Day
14h 20m
Waning Crescent, 6% of the Moon is Illuminated
Jul 5
Waning Crescent
Jul 8
New
Jul 15
First Quarter
Jul 22
Full
Jul 29
Last Quarter

Hourly Weather History & Observations

Time (EDT) Temp. Heat Index Dew Point Humidity Pressure Visibility Wind Dir Wind Speed Gust Speed Precip Events Conditions
12:55 AM 75.2 °F - 71.6 °F 89% 30.22 in 10.0 mi SE 2.3 mph - N/A   Mostly Cloudy
1:10 AM 73.4 °F - 71.6 °F 94% 30.22 in 10.0 mi ESE 3.5 mph - N/A   Mostly Cloudy
1:40 AM 73.4 °F - 71.6 °F 94% 30.21 in 10.0 mi East 4.6 mph - N/A   Overcast
1:58 AM 74.1 °F - 72.0 °F 93% 30.21 in 10.0 mi ESE 4.6 mph - N/A   Overcast
2:53 AM 73.4 °F - 71.6 °F 94% 30.20 in 10.0 mi ESE 5.8 mph - N/A   Overcast
2:58 AM 73.9 °F - 71.8 °F 93% 30.19 in 10.0 mi ESE 5.8 mph - N/A   Overcast
3:28 AM 73.4 °F - 71.6 °F 94% 30.19 in 9.0 mi SE 4.6 mph - N/A   Overcast
3:58 AM 73.9 °F - 72.5 °F 95% 30.19 in 7.0 mi SSE 5.8 mph - N/A   Overcast
4:03 AM 73.4 °F - 73.4 °F 100% 30.19 in 6.0 mi SSE 3.5 mph - N/A   Overcast
4:13 AM 73.4 °F - 73.4 °F 100% 30.19 in 6.0 mi South 4.6 mph - N/A   Overcast
4:18 AM 73.4 °F - 73.4 °F 100% 30.20 in 5.0 mi South 4.6 mph - N/A   Overcast
4:43 AM 73.4 °F - 73.4 °F 100% 30.20 in 2.5 mi SE 5.8 mph - N/A   Overcast
4:58 AM 74.1 °F - 73.2 °F 97% 30.20 in 2.5 mi SE 4.6 mph - N/A   Overcast
5:08 AM 73.4 °F - 73.4 °F 100% 30.20 in 3.0 mi SE 2.3 mph - N/A   Overcast
5:43 AM 75.2 °F - 73.4 °F 94% 30.21 in 5.0 mi SE 4.6 mph - N/A   Overcast
5:53 AM 75.2 °F - 73.4 °F 94% 30.21 in 5.0 mi SE 4.6 mph - N/A   Overcast
5:58 AM 74.5 °F - 73.8 °F 98% 30.21 in 5.0 mi ESE 4.6 mph - N/A   Overcast
6:08 AM 75.2 °F - 73.4 °F 94% 30.21 in 5.0 mi SE 3.5 mph - N/A   Overcast
6:13 AM 75.2 °F - 73.4 °F 94% 30.21 in 4.0 mi ESE 3.5 mph - N/A Rain Light Rain
6:16 AM 75.2 °F - 73.4 °F 94% 30.21 in 4.0 mi ESE 4.6 mph - N/A   Overcast
6:28 AM 75.2 °F - 73.4 °F 94% 30.22 in 2.5 mi ESE 4.6 mph - N/A   Light Drizzle
6:33 AM 75.2 °F - 73.4 °F 94% 30.22 in 2.5 mi Variable 4.6 mph - N/A   Light Drizzle
6:38 AM 75.2 °F - 73.4 °F 94% 30.22 in 2.0 mi ESE 5.8 mph - N/A Rain Light Rain
6:43 AM 75.2 °F - 73.4 °F 94% 30.22 in 3.0 mi SE 2.3 mph - N/A Rain Light Rain
6:58 AM 74.8 °F - 74.5 °F 99% 30.22 in 5.0 mi SE 5.8 mph - 0.04 in   Light Drizzle
7:03 AM 75.2 °F - 75.2 °F 100% 30.22 in 4.0 mi SSE 4.6 mph - N/A   Overcast
7:58 AM 75.7 °F - 75.6 °F 99% 30.22 in 8.0 mi ESE 6.9 mph - 0.00 in   Overcast
8:18 AM 77.0 °F - 77.0 °F 100% 30.23 in 10.0 mi SE 4.6 mph - N/A   Overcast
8:33 AM 77.0 °F - 77.0 °F 100% 30.24 in 10.0 mi SSE 4.6 mph - N/A   Overcast
8:48 AM 78.8 °F - 75.2 °F 89% 30.23 in 10.0 mi SSE 8.1 mph - N/A   Overcast
8:58 AM 78.8 °F - 73.4 °F 83% 30.23 in 10.0 mi SE 8.1 mph - N/A   Mostly Cloudy
9:03 AM 80.6 °F 85.4 °F 73.4 °F 79% 30.23 in 10.0 mi SE 9.2 mph - N/A   Mostly Cloudy
9:13 AM 80.6 °F 85.4 °F 73.4 °F 79% 30.23 in 10.0 mi Variable 6.9 mph - N/A   Mostly Cloudy
9:28 AM 80.6 °F 84.6 °F 71.6 °F 74% 30.23 in 10.0 mi SE 8.1 mph - N/A   Mostly Cloudy
9:33 AM 80.6 °F 84.6 °F 71.6 °F 74% 30.24 in 10.0 mi SSE 8.1 mph - N/A   Mostly Cloudy
9:58 AM 82.0 °F 86.5 °F 71.4 °F 70% 30.24 in 10.0 mi SSE 9.2 mph - N/A   Scattered Clouds
10:13 AM 82.4 °F 87.2 °F 71.6 °F 70% 30.24 in 10.0 mi SSE 6.9 mph - N/A   Mostly Cloudy
10:23 AM 80.6 °F 84.6 °F 71.6 °F 74% 30.24 in 10.0 mi SSE 6.9 mph - N/A   Mostly Cloudy
10:58 AM 84.2 °F 89.6 °F 71.6 °F 66% 30.24 in 10.0 mi SE 9.2 mph - N/A   Mostly Cloudy
11:08 AM 86.0 °F 90.4 °F 69.8 °F 58% 30.23 in 10.0 mi SSE 10.4 mph - N/A   Scattered Clouds
11:58 AM 86.4 °F 90.4 °F 69.1 °F 56% 30.23 in 10.0 mi SSE 8.1 mph - N/A   Partly Cloudy
12:58 PM 87.8 °F 92.2 °F 69.4 °F 54% 30.22 in 10.0 mi ESE 12.7 mph 16.1 mph N/A   Scattered Clouds
1:55 PM 89.6 °F 93.4 °F 68.0 °F 49% 30.20 in 10.0 mi SE 9.2 mph - N/A   Scattered Clouds
2:05 PM 91.4 °F 98.4 °F 71.6 °F 52% 30.20 in 10.0 mi SE 12.7 mph - N/A   Light Drizzle
2:11 PM 91.4 °F 96.8 °F 69.8 °F 49% 30.20 in 10.0 mi SE 6.9 mph 16.1 mph N/A Thunderstorm Scattered Clouds
2:37 PM 87.8 °F 93.8 °F 71.6 °F 58% 30.21 in 2.5 mi SE 17.3 mph 25.3 mph N/A Rain Light Rain
2:42 PM 82.4 °F 88.2 °F 73.4 °F 74% 30.20 in 1.0 mi South 5.8 mph 25.3 mph N/A Rain Heavy Rain
2:47 PM 80.6 °F 85.4 °F 73.4 °F 79% 30.19 in 1.5 mi SW 10.4 mph - N/A Rain Light Rain
2:52 PM 80.6 °F 85.4 °F 73.4 °F 79% 30.19 in 8.0 mi WSW 8.1 mph - N/A Rain Light Rain
2:56 PM 80.6 °F 85.4 °F 73.4 °F 79% 30.19 in 10.0 mi WSW 4.6 mph - N/A   Scattered Clouds
2:58 PM 80.6 °F 84.6 °F 71.6 °F 74% 30.19 in 10.0 mi WSW 4.6 mph - 0.16 in   Scattered Clouds
3:24 PM 82.4 °F 87.2 °F 71.6 °F 70% 30.19 in 8.0 mi ENE 16.1 mph - N/A   Light Drizzle
3:29 PM 80.6 °F 84.6 °F 71.6 °F 74% 30.19 in 0.8 mi NE 9.2 mph 26.5 mph N/A Rain Heavy Rain
3:30 PM 78.8 °F - 71.6 °F 78% 30.19 in 0.8 mi NE 11.5 mph 26.5 mph N/A Rain Heavy Rain
3:35 PM 77.0 °F - 69.8 °F 78% 30.18 in 0.5 mi NNE 11.5 mph 26.5 mph N/A Rain Heavy Rain
3:40 PM 77.0 °F - 71.6 °F 83% 30.18 in 2.0 mi NNE 6.9 mph - N/A Rain Light Rain
3:44 PM 77.0 °F - 71.6 °F 83% 30.18 in 10.0 mi NE 6.9 mph - N/A   Mostly Cloudy
3:58 PM 81.5 °F 85.7 °F 71.4 °F 71% 30.17 in 10.0 mi NE 8.1 mph - 0.34 in   Scattered Clouds
4:06 PM 80.6 °F 84.6 °F 71.6 °F 74% 30.16 in 10.0 mi NE 11.5 mph - N/A Rain Light Rain
4:18 PM 78.8 °F - 71.6 °F 78% 30.16 in 10.0 mi Variable 4.6 mph - N/A   Mostly Cloudy
4:30 PM 80.6 °F 84.6 °F 71.6 °F 74% 30.20 in 1.5 mi SE 13.8 mph 20.7 mph N/A   Haze
4:31 PM 80.6 °F 85.4 °F 73.4 °F 79% 30.19 in 1.0 mi SE 11.5 mph 20.7 mph N/A Rain Heavy Rain
4:32 PM 80.6 °F 85.4 °F 73.4 °F 79% 30.19 in 0.8 mi SE 8.1 mph 20.7 mph N/A Rain Heavy Rain
4:34 PM 78.8 °F - 73.4 °F 83% 30.18 in 0.8 mi Variable 4.6 mph 20.7 mph N/A Rain Heavy Rain
4:35 PM 78.8 °F - 73.4 °F 83% 30.18 in 0.5 mi Variable 5.8 mph 20.7 mph N/A Rain Heavy Rain
4:39 PM 77.0 °F - 73.4 °F 89% 30.17 in 0.5 mi North 8.1 mph 20.7 mph N/A Rain Rain
4:44 PM 77.0 °F - 71.6 °F 83% 30.16 in 2.0 mi NNE 5.8 mph - N/A Rain Rain
4:49 PM 77.0 °F - 71.6 °F 83% 30.16 in 6.0 mi NE 6.9 mph - N/A Rain Rain
4:54 PM 77.0 °F - 71.6 °F 83% 30.16 in 6.0 mi NNE 6.9 mph - N/A Rain Light Rain
4:58 PM 77.0 °F - 72.0 °F 84% 30.16 in 6.0 mi NNE 6.9 mph - 0.38 in Rain Light Rain
5:03 PM 78.8 °F - 73.4 °F 83% 30.16 in 10.0 mi NNE 8.1 mph - N/A   Mostly Cloudy
5:12 PM 78.8 °F - 73.4 °F 83% 30.17 in 3.0 mi East 16.1 mph 23.0 mph N/A Rain Light Rain
5:17 PM 77.0 °F - 69.8 °F 78% 30.18 in 2.5 mi SE 8.1 mph 23.0 mph N/A Rain Light Rain
5:22 PM 75.2 °F - 69.8 °F 83% 30.17 in 4.0 mi SSE 3.5 mph - N/A Rain , Thunderstorm Light Thunderstorms and Rain
5:39 PM 75.2 °F - 69.8 °F 83% 30.16 in 10.0 mi North 2.3 mph - N/A Rain Light Rain
5:41 PM 77.0 °F - 68.0 °F 74% 30.16 in 10.0 mi NE 2.3 mph - N/A   Mostly Cloudy
5:43 PM 77.0 °F - 69.8 °F 78% 30.16 in 10.0 mi NE 2.3 mph - N/A Thunderstorm Thunderstorm
5:58 PM 75.6 °F - 70.2 °F 83% 30.17 in 10.0 mi WNW 9.2 mph - 0.08 in Thunderstorm Thunderstorm
5:59 PM 75.2 °F - 69.8 °F 83% 30.17 in 10.0 mi WNW 9.2 mph - N/A   Scattered Clouds
6:00 PM 75.2 °F - 69.8 °F 83% 30.17 in 10.0 mi WNW 9.2 mph - N/A Thunderstorm Thunderstorm
6:12 PM 75.2 °F - 69.8 °F 83% 30.18 in 10.0 mi WNW 6.9 mph - N/A Rain , Thunderstorm Light Thunderstorms and Rain
6:14 PM 75.2 °F - 69.8 °F 83% 30.18 in 10.0 mi WNW 5.8 mph - N/A Rain Light Rain
6:24 PM 75.2 °F - 69.8 °F 83% 30.18 in 2.5 mi WNW 5.8 mph - N/A Rain Light Rain
6:29 PM 73.4 °F - 69.8 °F 88% 30.18 in 7.0 mi West 5.8 mph - N/A Rain Light Rain
6:40 PM 75.2 °F - 69.8 °F 83% 30.18 in 10.0 mi NW 6.9 mph - N/A   Mostly Cloudy
6:58 PM 75.0 °F - 70.9 °F 87% 30.17 in 10.0 mi NW 9.2 mph - 0.05 in   Scattered Clouds
7:00 PM 75.2 °F - 71.6 °F 89% 30.17 in 10.0 mi WNW 8.1 mph - N/A Rain Light Rain
7:07 PM 75.2 °F - 71.6 °F 89% 30.20 in 10.0 mi South 9.2 mph - N/A Rain Light Rain
7:12 PM 75.2 °F - 71.6 °F 89% 30.20 in 0.5 mi Variable 1.2 mph - N/A Fog , Rain Light Rain
7:17 PM 73.4 °F - 69.8 °F 88% 30.19 in 0.2 mi NNW 5.8 mph - N/A Fog , Rain Heavy Rain
7:22 PM 73.4 °F - 71.6 °F 94% 30.19 in 0.8 mi North 9.2 mph - N/A Rain Light Rain
7:27 PM 73.4 °F - 71.6 °F 94% 30.19 in 8.0 mi NNW 5.8 mph - N/A Rain Light Rain
7:37 PM 75.2 °F - 71.6 °F 89% 30.19 in 5.0 mi North 6.9 mph - N/A Rain Light Rain
7:50 PM 75.2 °F - 71.6 °F 89% 30.19 in 10.0 mi NNE 6.9 mph - N/A Rain , Thunderstorm Light Thunderstorms and Rain
7:58 PM 75.2 °F - 71.6 °F 89% 30.20 in 2.0 mi ESE 10.4 mph - 0.35 in Rain , Thunderstorm Heavy Thunderstorms and Rain
8:03 PM 75.2 °F - 71.6 °F 89% 30.20 in 0.5 mi East 5.8 mph - N/A Fog , Rain , Thunderstorm Heavy Thunderstorms and Rain
8:08 PM 73.4 °F - 71.6 °F 94% 30.21 in 0.5 mi SW 3.5 mph - N/A Fog , Rain , Thunderstorm Heavy Thunderstorms and Rain
8:13 PM 73.4 °F - 71.6 °F 94% 30.21 in 0.5 mi SE 8.1 mph - N/A Fog , Rain , Thunderstorm Heavy Thunderstorms and Rain
8:18 PM 73.4 °F - 71.6 °F 94% 30.21 in 1.0 mi SSE 2.3 mph - N/A Rain , Thunderstorm Light Thunderstorms and Rain
8:23 PM 73.4 °F - 71.6 °F 94% 30.21 in 4.0 mi Calm Calm - N/A Rain , Thunderstorm Light Thunderstorms and Rain
8:28 PM 73.4 °F - 71.6 °F 94% 30.21 in 10.0 mi Calm Calm - N/A Rain , Thunderstorm Light Thunderstorms and Rain
8:30 PM 73.4 °F - 71.6 °F 94% 30.21 in 10.0 mi South 2.3 mph - N/A Thunderstorm Thunderstorm
8:35 PM 73.4 °F - 71.6 °F 94% 30.21 in 10.0 mi SSW 3.5 mph - N/A Thunderstorm Thunderstorm
8:37 PM 73.4 °F - 71.6 °F 94% 30.21 in 10.0 mi SSW 4.6 mph - N/A Rain , Thunderstorm Light Thunderstorms and Rain
8:42 PM 73.4 °F - 71.6 °F 94% 30.22 in 10.0 mi WSW 4.6 mph - N/A   Light Drizzle
8:57 PM 73.4 °F - 69.8 °F 88% 30.22 in 9.0 mi Calm Calm - N/A Rain Light Rain
8:58 PM 73.4 °F - 69.8 °F 88% 30.22 in 9.0 mi Calm Calm - 0.61 in Rain Light Rain
9:03 PM 75.2 °F - 69.8 °F 83% 30.22 in 9.0 mi Calm Calm - N/A Rain Light Rain
9:04 PM 75.2 °F - 69.8 °F 83% 30.22 in 10.0 mi Calm Calm - N/A   Mostly Cloudy
9:09 PM 75.2 °F - 69.8 °F 83% 30.21 in 10.0 mi NNE 2.3 mph - N/A   Scattered Clouds
9:17 PM 75.2 °F - 71.6 °F 89% 30.22 in 10.0 mi Calm Calm - N/A Rain Light Rain
9:22 PM 75.2 °F - 69.8 °F 83% 30.22 in 7.0 mi WSW 1.2 mph - N/A Rain Light Rain
9:27 PM 75.2 °F - 69.8 °F 83% 30.22 in 6.0 mi WSW 2.3 mph - N/A Rain Light Rain
9:32 PM 75.2 °F - 69.8 °F 83% 30.23 in 9.0 mi WSW 1.2 mph - N/A   Light Drizzle
9:34 PM 75.2 °F - 69.8 °F 83% 30.22 in 10.0 mi WSW 1.2 mph - N/A   Mostly Cloudy
9:44 PM 73.4 °F - 69.8 °F 88% 30.23 in 10.0 mi WSW 1.2 mph - N/A   Mostly Cloudy
9:48 PM 73.4 °F - 69.8 °F 88% 30.24 in 8.0 mi SSE 4.6 mph - N/A Rain Light Rain
9:53 PM 75.2 °F - 71.6 °F 89% 30.24 in 2.0 mi SSE 2.3 mph - N/A Rain Heavy Rain
9:58 PM 73.4 °F - 71.6 °F 94% 30.24 in 1.0 mi South 2.3 mph - 0.21 in Rain Heavy Rain
10:03 PM 73.4 °F - 71.6 °F 94% 30.24 in 0.8 mi Calm Calm - N/A Rain Heavy Rain
10:04 PM 73.4 °F - 71.6 °F 94% 30.23 in 0.8 mi Calm Calm - N/A Rain , Thunderstorm Heavy Thunderstorms and Rain
10:09 PM 73.4 °F - 71.6 °F 94% 30.24 in 1.2 mi South 2.3 mph - N/A Rain , Thunderstorm Light Thunderstorms and Rain
10:14 PM 73.4 °F - 71.6 °F 94% 30.24 in 7.0 mi SSE 2.3 mph - N/A Rain , Thunderstorm Light Thunderstorms and Rain
10:15 PM 73.4 °F - 71.6 °F 94% 30.23 in 10.0 mi SSE 2.3 mph - N/A Thunderstorm Thunderstorm
10:18 PM 73.4 °F - 71.6 °F 94% 30.24 in 10.0 mi SSE 2.3 mph - N/A   Mostly Cloudy
10:58 PM 73.4 °F - 71.6 °F 94% 30.23 in 10.0 mi East 2.3 mph - 0.19 in   Scattered Clouds
11:43 PM 71.6 °F - 71.6 °F 100% 30.23 in 8.0 mi ENE 2.3 mph - N/A   Clear
11:48 PM 71.6 °F - 71.6 °F 100% 30.23 in 2.5 mi ENE 2.3 mph - N/A   Clear
11:53 PM 71.6 °F - 69.8 °F 94% 30.23 in 1.5 mi ENE 2.3 mph - N/A   Clear
11:58 PM 71.6 °F - 69.8 °F 94% 30.23 in 1.8 mi East 3.5 mph - N/A   Clear